Volver al catálogo

Zorkiy-2M 7

ActivoMilitarSSO
NORAD 67268·PAYLOAD·🇷🇺 Russia

Lanzado Dec 28, 2025 desde Vostochny Cosmodrome

Loading…

Próximos Pases (próximas 24 horas)

TLE

ActualizadoSource: Space-Track

Época: Sep 14, 2026, 10:34 UTC

1 67268U 25313W   26257.44057513  .00005103  00000-0  21541-3 0  9999
2 67268  97.3877 330.6676 0015642  55.0886 305.1819 15.23612043 39537

Sigue Zorkiy-2M 7 en tiempo real con AllMySat

Download on the App Store